Theta_e
311 310 310 310 309 309 308 308 307 308 308 309 311 312 313 314 317 323 326 327 328 329 330 328 330 328 328 328 329 331 334 333 333 311 310 310 311 311 307 306 304 303 303
310 309 309 310 308 308 307 307 307 307 308 309 311 312 313 315 320 327 327 327 325 324 323 323 321 320 320 320 320 320 320 323 321 312 305 302 302 303 304 304 304 303 302
309 308 308 309 307 307 306 306 306 306 308 310 311 312 314 316 322 326 324 322 320 318 317 316 315 316 316 314 312 311 311 310 312 306 302 301 301 302 302 303 302 302 301
308 307 308 307 307 306 305 305 305 307 308 310 310 312 314 317 320 322 318 318 314 312 311 313 314 313 311 311 309 307 306 304 302 301 300 299 300 300 301 299 299 299 299
307 307 307 307 307 305 304 304 305 307 309 309 310 313 317 318 318 316 316 313 311 311 312 310 308 307 306 306 306 304 303 302 301 300 300 299 300 300 300 299 298 298 297
306 306 306 306 305 304 303 303 304 306 308 307 312 315 316 316 315 315 312 310 308 308 307 307 307 305 303 303 302 302 302 301 300 300 299 300 299 299 299 299 299 301 302
305 305 305 304 303 303 302 303 304 306 306 309 313 313 313 312 310 309 309 308 306 306 308 307 305 303 302 301 299 299 299 299 299 298 298 298 298 299 298 300 300 300 300
303 302 302 301 301 302 302 303 304 305 306 309 310 310 309 307 307 307 307 306 305 305 305 304 302 301 300 299 298 298 298 299 300 300 299 298 298 298 299 300 300 299 299
299 299 300 302 302 303 304 303 304 304 306 308 308 306 305 304 304 304 304 303 303 302 302 301 300 299 299 300 300 300 299 298 299 298 298 298 298 298 298 299 299 301 301
298 298 299 299 300 301 303 305 304 305 306 305 304 303 303 303 303 303 302 301 299 299 298 297 298 298 299 299 300 300 300 300 300 299 299 299 300 299 299 299 300 300 300
298 298 299 300 300 300 301 301 304 304 302 301 301 301 301 301 300 299 299 298 298 298 298 297 297 297 297 297 299 299 299 300 299 299 299 299 299 299 299 299 299 300 299
297 298 298 299 300 300 302 302 302 301 300 299 298 298 298 298 298 298 298 298 298 298 297 296 297 296 296 296 297 297 298 300 299 298 299 299 299 299 299 299 299 299 299
297 298 298 298 299 300 300 301 300 300 299 299 298 298 298 298 298 298 298 297 297 297 296 297 297 297 296 296 298 299 299 298 299 299 298 298 298 299 299 300 300 299 299
298 298 299 299 300 301 300 300 299 299 299 298 298 298 297 297 296 297 297 296 296 296 296 296 296 295 296 298 300 300 298 297 298 298 298 299 299 299 299 300 300 301 300
299 299 298 297 296 297 297 298 298 299 298 297 297 297 297 296 296 297 298 296 297 297 297 296 296 296 297 298 297 298 298 297 296 296 297 298 299 299 299 299 300 301 300
298 297 297 296 296 296 296 295 297 297 296 297 297 297 296 296 297 296 297 297 296 296 295 295 295 295 295 296 296 296 297 297 297 296 296 297 298 299 298 299 300 299 300
297 296 295 295 295 296 295 295 295 295 296 297 297 296 296 296 297 296 295 295 295 295 295 295 295 295 295 295 294 295 295 295 295 295 295 296 297 298 298 299 298 298 299
296 296 296 296 296 296 297 297 297 296 295 294 296 296 297 296 295 295 294 294 294 294 294 294 294 294 294 294 294 294 294 294 293 294 294 295 296 297 298 298 299 298 298
296 296 296 296 297 297 297 296 295 295 295 294 294 293 293 292 292 293 293 294 294 293 293 293 293 293 292 292 292 292 292 292 293 293 293 294 295 296 296 297 298 298 298
295 295 296 296 297 297 296 295 295 295 296 295 294 294 293 294 293 293 293 293 292 292 292 291 291 291 291 291 291 291 291 292 292 292 293 293 294 294 294 297 297 297 297
297 297 297 297 297 296 295 295 295 296 294 292 292 293 293 293 293 292 292 291 291 291 290 290 290 290 290 290 290 290 290 291 291 291 291 292 292 293 293 296 296 295 295
297 297 297 296 296 295 295 296 295 293 292 291 291 290 291 292 292 291 290 290 290 289 289 288 288 289 289 289 290 290 290 290 290 290 290 291 291 291 293 296 296 296 294
296 296 295 294 294 295 295 294 294 293 293 293 292 292 291 291 290 290 290 289 289 289 288 288 288 288 288 289 289 289 289 289 289 289 289 290 290 292 295 295 296 295 295
295 295 295 294 296 296 295 294 293 293 293 292 292 291 290 290 289 289 289 289 289 288 288 288 288 288 288 289 289 288 288 288 288 289 290 291 293 294 294 295 294 295 293
297 297 296 296 295 294 294 294 293 292 292 291 290 289 289 289 288 288 288 288 288 288 287 287 287 287 288 288 288 288 287 286 287 288 289 291 292 293 294 294 294 295 293
298 297 296 295 295 294 294 293 292 291 290 289 289 289 288 288 288 288 288 288 287 287 287 286 286 286 287 287 287 287 287 286 287 287 289 289 290 291 293 294 293 294 293
Wind_Speed
11 14 13 13 15 17 19 21 24 24 23 22 22 23 24 23 22 21 21 21 21 21 19 13 12 12 13 14 14 15 14 15 8 3 3 11 18 21 21 24 20 15 14
14 18 17 16 17 19 20 23 24 22 22 21 21 22 21 21 20 18 16 16 16 14 9 5 3 5 5 6 6 6 7 7 1 3 8 7 18 23 23 24 25 19 16
17 20 19 19 20 17 21 23 21 21 21 21 21 21 20 20 19 15 13 16 12 6 2 2 3 4 5 6 7 8 7 7 4 12 10 18 20 20 22 23 20 19 13
21 22 21 20 17 17 21 21 22 20 21 21 22 22 21 18 16 10 9 7 2 4 7 9 8 9 8 8 10 11 11 14 19 22 22 19 21 13 23 17 16 11 10
26 25 22 21 17 19 23 23 23 20 18 20 22 22 18 14 11 9 6 6 10 11 13 15 18 19 18 14 13 13 14 18 19 20 19 18 16 15 12 10 8 9 8
27 26 23 19 18 22 24 21 21 19 19 20 19 14 9 13 13 10 12 14 16 17 18 17 19 25 29 28 26 22 17 21 21 20 16 17 10 13 12 10 3 6 1
21 20 19 23 28 31 26 21 20 18 19 18 13 7 7 5 5 13 16 18 17 15 14 16 20 21 23 27 29 31 31 27 27 27 21 15 10 12 9 7 4 6 3
26 26 28 27 24 21 18 19 16 16 16 17 5 1 1 6 12 16 20 23 20 18 17 17 21 22 23 27 32 34 31 27 23 23 21 17 13 7 5 9 10 11 6
24 22 18 16 19 15 10 11 15 14 15 4 3 5 10 13 16 19 22 25 23 21 21 20 24 24 26 24 27 27 25 24 25 25 23 20 18 12 10 10 6 4 5
19 19 17 16 13 10 7 7 8 11 8 9 14 14 16 17 17 19 21 21 25 25 23 24 25 25 24 22 25 21 22 18 18 17 17 19 19 19 16 11 7 8 4
16 14 13 11 11 9 10 10 8 12 18 21 23 22 22 21 20 22 21 22 24 24 24 21 24 22 24 24 23 18 17 17 17 15 14 14 16 17 15 14 14 12 9
13 10 9 8 4 5 4 5 13 20 22 22 25 26 28 28 24 24 24 26 25 25 22 25 22 22 22 19 17 18 20 15 13 13 12 12 12 11 9 9 10 10 12
8 7 6 6 5 4 3 14 18 18 21 20 22 23 26 29 30 28 28 27 31 32 28 24 21 21 21 18 19 20 16 15 14 14 13 11 9 8 7 7 7 10 12
6 7 7 7 5 10 18 19 19 20 21 21 22 22 24 24 25 28 29 30 32 29 23 22 21 20 19 19 18 16 15 15 14 13 12 10 10 10 10 9 7 5 9
8 12 17 23 27 31 28 22 24 21 21 23 22 23 24 22 21 27 29 26 24 21 21 19 18 17 17 17 16 14 12 13 14 12 11 10 10 10 9 9 7 6 9
23 22 22 24 26 28 33 36 32 31 28 29 31 33 32 32 30 28 26 22 22 22 21 19 18 17 17 16 15 14 13 11 10 11 11 9 9 9 9 8 9 8 7
25 25 24 27 27 28 30 33 34 39 40 38 37 35 33 30 26 24 26 26 26 24 20 19 18 17 16 16 15 14 12 10 9 10 10 10 9 8 8 10 9 8 7
29 27 27 25 26 29 31 31 32 31 29 30 32 30 26 24 23 24 26 25 24 22 20 20 18 17 16 15 13 12 12 11 11 11 11 11 10 9 9 11 10 10 9
27 27 29 29 29 31 31 30 29 28 27 27 29 27 25 26 28 29 26 24 22 20 20 20 18 17 15 14 13 13 12 11 11 12 12 11 9 9 10 9 10 11 10
32 32 31 30 30 30 28 27 26 25 26 25 21 21 20 22 23 23 23 22 22 21 20 19 17 15 14 13 11 11 13 13 12 11 11 11 10 11 11 10 12 10 10
29 30 31 30 28 26 25 25 25 26 22 19 19 19 21 22 21 21 20 20 20 19 17 16 15 15 14 15 15 14 13 13 13 13 13 12 11 11 10 9 11 10 11
29 29 28 28 27 26 25 27 27 23 22 23 23 25 25 22 22 21 20 20 18 17 16 16 16 16 15 14 14 15 16 16 15 13 13 11 11 10 10 10 11 12 12
29 29 29 28 27 26 25 23 24 24 23 22 20 20 20 21 20 20 19 18 17 17 17 17 16 15 14 16 16 16 16 15 15 14 13 12 12 11 12 12 13 12 12
29 29 27 24 23 23 23 23 23 23 21 21 20 19 20 19 19 19 18 17 17 17 16 16 16 15 14 14 15 15 15 15 13 15 15 14 13 13 13 13 15 14 14
27 26 24 23 23 23 23 23 22 20 20 19 20 20 20 19 19 18 17 16 16 16 15 14 13 14 16 15 14 14 16 20 17 18 17 17 15 14 14 14 14 15 16
23 22 22 22 21 21 21 20 19 18 19 19 19 19 18 18 17 16 15 15 14 14 13 13 14 14 14 15 15 14 15 18 20 22 18 20 20 18 15 15 15 15 16
Wind_Direction
309 306 298 290 298 304 304 305 307 305 299 295 295 296 293 288 290 284 277 282 285 286 280 269 271 270 278 285 286 284 270 256 260 89 145 147 152 160 149 152 141 137 141
307 310 300 289 300 300 302 306 306 303 299 294 295 297 292 290 284 277 278 284 288 290 281 284 305 311 321 337 345 344 326 317 46 117 95 47 107 122 121 121 127 126 127
310 307 298 290 296 295 303 305 304 301 299 297 296 294 290 288 281 280 279 288 286 274 299 64 61 55 40 33 37 39 29 31 99 126 106 106 104 120 116 116 115 116 114
305 302 290 287 280 293 301 299 302 298 297 296 298 293 291 285 281 272 276 272 209 102 84 69 61 65 58 55 54 56 63 78 92 101 107 102 101 110 108 99 99 109 102
301 297 285 281 267 289 296 293 298 293 294 296 298 296 290 279 282 273 254 160 121 96 83 78 75 76 74 73 73 70 80 88 92 99 97 99 99 98 88 97 102 84 82
294 288 284 268 267 287 292 286 288 287 293 300 300 296 283 285 288 260 172 138 112 102 96 92 87 82 80 78 77 80 88 100 97 99 95 95 93 101 114 121 169 230 129
276 272 267 270 279 283 278 273 271 280 299 297 291 294 311 300 188 163 147 126 113 110 107 103 97 89 87 85 81 79 79 86 95 102 99 94 94 105 111 133 137 93 94
277 279 280 281 277 276 257 259 260 284 291 291 264 344 120 140 152 144 131 115 105 99 98 100 97 94 94 95 91 86 83 77 76 80 78 77 83 84 123 125 117 109 93
275 270 269 283 267 271 247 260 271 282 286 216 129 114 131 127 126 124 116 112 104 97 96 97 97 97 97 96 92 92 87 82 86 81 75 74 71 82 120 134 123 99 77
260 264 270 260 269 276 274 285 285 275 179 120 100 104 115 113 119 117 115 112 106 102 99 98 101 103 100 95 96 95 94 97 95 86 78 66 64 63 73 77 66 59 42
256 256 256 265 249 249 274 278 286 143 116 102 97 96 101 107 104 111 108 108 104 103 101 99 99 96 94 95 93 97 99 108 94 85 76 65 57 53 54 61 67 63 67
249 246 247 249 235 252 255 284 147 121 105 99 94 89 91 94 99 99 102 106 104 102 103 106 104 99 91 92 100 107 111 96 85 79 70 60 57 44 47 61 67 66 63
221 225 221 222 224 211 240 132 112 110 107 103 102 100 98 104 110 116 114 108 108 106 104 105 106 100 90 83 101 100 81 73 76 77 74 66 54 53 68 64 67 61 63
180 191 178 172 162 119 110 104 106 107 107 109 107 104 102 99 103 110 107 105 106 103 98 90 88 92 88 83 87 82 74 70 65 63 60 59 59 58 45 40 44 65 66
127 120 107 103 99 89 85 90 94 94 102 107 108 108 109 100 105 116 113 105 98 100 100 88 83 80 76 76 75 72 69 65 58 52 53 54 54 58 50 38 35 71 66
89 90 95 96 93 95 95 87 89 102 109 113 114 111 107 109 109 107 104 104 106 98 86 84 80 74 72 72 71 67 59 58 51 47 46 47 47 47 55 27 43 47 48
92 92 91 94 97 101 100 101 98 97 99 101 104 104 104 105 101 104 107 103 99 92 85 84 79 76 74 70 66 63 58 53 50 45 42 42 44 50 43 37 39 40 47
91 93 95 97 100 103 104 105 105 103 99 92 98 99 102 104 104 107 105 97 82 78 81 80 76 72 68 66 63 59 56 52 48 42 39 39 38 40 39 43 42 52 36
94 94 96 98 102 104 101 100 102 102 100 97 96 94 101 105 103 96 88 86 85 81 76 73 70 68 68 65 61 57 53 49 46 42 38 38 33 34 34 38 40 36 33
93 99 101 100 101 101 100 101 100 102 104 102 99 102 106 97 85 81 80 83 82 79 76 73 70 69 67 64 61 56 53 49 42 37 37 36 34 32 31 36 34 28 22
96 96 99 99 99 98 98 99 101 104 101 95 92 103 103 95 90 86 83 78 77 74 72 71 69 66 62 59 58 54 51 47 39 34 31 30 30 30 32 42 39 29 25
99 99 100 100 101 99 99 104 104 102 99 99 97 92 91 91 89 87 83 79 77 75 73 72 69 67 62 58 54 52 49 42 34 30 30 30 30 32 39 46 43 32 29
101 102 99 96 99 103 102 103 102 103 102 102 100 96 92 90 89 87 85 84 82 78 73 71 71 70 64 58 56 54 47 39 34 32 30 34 39 47 51 48 42 35 26
100 101 102 102 106 104 102 101 101 101 102 100 97 94 93 94 94 91 88 86 84 79 75 72 67 64 63 62 58 55 49 45 41 39 41 45 51 53 52 51 44 39 31
105 106 106 104 103 103 103 103 102 100 99 99 99 98 99 98 96 93 90 88 85 82 76 71 68 66 65 65 64 62 55 49 54 52 49 50 54 53 52 52 47 44 38
108 107 106 106 105 106 107 105 103 103 103 103 103 104 105 102 99 95 92 90 87 83 80 74 70 69 67 64 65 65 61 54 55 59 51 51 51 50 50 51 48 46 43